Regional Weather Roundup
Issued by NWS Bismarck, ND

Home | Current Version | Previous Version | Text Only | Print | Product List | Glossary On
Versions: 1 2 3 4 5 6 7 8 9 10 11 12 13 14 15 16 17 18 19 20 21 22 23 24 25 26 27 28 29 30 31 32 33 34 35 36 37 38 39 40 41 42 43 44 45 46 47 48 49 50
000
ASUS43 KBIS 301010
RWRBIS

NWR BROADCAST TEXT
NATIONAL WEATHER SERVICE BISMARCK ND
500 AM CDT THU OCT 30 2014

NOTE: "FAIR" INDICATES FEW OR NO CLOUDS BELOW 12,000 FEET WITH NO
SIGNIFICANT WEATHER AND/OR OBSTRUCTIONS TO VISIBILITY.


CITY           SKY/WX    TMP DP  RH WIND       PRES   REMARKS
WILLISTON      CLOUDY    37  33  85 N9        30.21R
MINOT          CLEAR     29  26  89 NW12      30.16R WCI  19
MINOT AFB      CLEAR     29  29  99 N13       30.17R WCI  19
BISMARCK       CLEAR     37  34  89 NW8       30.10R
DICKINSON      CLEAR     32  30  92 W8        30.14R
GARRISON         N/A     31  29  92 N15       30.13R
HETTINGER ARPT CLEAR     32  30  92 NW9       30.14R
JAMESTOWN      CLEAR     35  33  92 N13       29.99R
BEACH            N/A     32  32 100 N8        30.19S
CARRINGTON     PTSUNNY   32  32 100 N9        30.05R FOG
CROSBY         CLOUDY    36  36 100 N12       30.22R
HARVEY         FAIR      28  28 100 N13       30.10R WCI  18
HAZEN          FAIR      32  32 100 NW8       30.14R
LINTON         FAIR      36  36 100 W9        30.06R
MANDAN         FAIR      36  32  87 NW10      30.10R
OAKES            N/A     39  39 100 W5        29.99R
RUGBY          FAIR      25  25 100 N6        30.14R WCI  18
STANLEY        CLOUDY    32  32 100 N12       30.17R
TIOGA          CLOUDY    32  32 100 N8        30.22R
$$

CITY           SKY/WX    TMP DP  RH WIND       PRES   REMARKS
GRAND FORKS    MOCLDY    37  33  85 NE8       30.05R
GRAND FORKS AF CLOUDY    35  34  97 NE7       30.06R
DEVILS LAKE    CLEAR     28  21  74 N10       30.07R WCI  19
FARGO          CLOUDY    40  37  89 SE5       30.00S
CANDO          FAIR      27  25  93 N14       30.12R WCI  15
CAVALIER       CLOUDY    32  28  86 N8        30.12R
GRAFTON        FAIR      28  28 100 N7        30.09R
GWINNER        CLOUDY    39  39 100 CALM      29.99S
LANGDON        CLOUDY    28  27  93 N12       30.10R WCI  18
ROLLA          CLOUDY    28  28 100 N13       30.14R WCI  18
WALHALLA       FAIR      32  32 100 NW9       30.13R
$$

CITY           SKY/WX    TMP DP  RH WIND       PRES   REMARKS
ABERDEEN       CLEAR     35  32  88 SW6       30.00R
MOBRIDGE       CLEAR     42  37  82 NW14      30.04R
BUFFALO          N/A     35  30  82 NW14      30.10R
RAPID CITY     CLEAR     40  30  67 N10       30.16R
GLASGOW        CLOUDY    31  29  92 N6        30.23R
SIDNEY         CLOUDY    37  34  87 NW9G16    30.24R
WOLF POINT     CLOUDY    38  33  82 CALM      30.24R
GLENDIVE       CLEAR     30  28  93 N9        30.22R
MILES CITY     CLEAR     33  28  81 NW7       30.21R
BAKER          CLEAR     30  29  96 W8        30.19R
$$

CITY           SKY/WX    TMP DP  RH WIND       PRES   REMARKS
BILLINGS       CLEAR     43  29  57 SW13      30.25R
GREAT FALLS    CLEAR     35  31  85 SW10      30.23R
REGINA         CLOUDY    34  30  86 N8        30.26R
ESTEVAN        CLOUDY    36  32  87 N10       30.21R
$$




USA.gov is the U.S. government's official web portal to all federal, state and local government web resources and services.